EW3967 Weather Reports


Display with metric or nautical units.
time (UTC)temp
F
wind
direction
speed
MPH
gust
MPH
rain 1hr
in
rain 24hr
in
rain mn
in
humidity
%
barometer
mb
20260906120027 75 203 0.0 0.0 0.00 0.00 0.00 73 1011.5
20260906114526 76 203 0.0 0.0 0.00 0.00 0.00 72 1011.4
20260906113025 76 203 0.0 2.0 0.00 0.00 0.00 73 1011.3
20260906111523 76 207 0.0 1.0 0.00 0.00 0.00 72 1011.2
20260906110022 76 219 0.0 1.0 0.00 0.00 0.00 71 1011.1
20260906104533 76 171 0.0 1.0 0.00 0.00 0.00 71 1010.9
20260906103019 75 172 0.0 1.0 0.00 0.00 0.00 72 1010.8
20260906101518 75 160 0.0 0.0 0.00 0.00 0.00 73 1010.7
20260906100016 75 160 0.0 0.0 0.00 0.00 0.00 73 1010.7
20260906094533 75 160 0.0 0.0 0.00 0.00 0.00 74 1010.7
20260906093023 76 160 0.0 0.0 0.00 0.00 0.00 71 1010.7
20260906091513 76 160 0.0 0.0 0.00 0.00 0.00 71 1010.8
20260906090011 77 160 0.0 1.0 0.00 0.00 0.00 69 1010.6
20260906084510 77 160 1.0 1.0 0.00 0.00 0.00 68 1010.5
20260906083016 76 159 0.0 0.0 0.00 0.00 0.00 69 1010.5
20260906081511 77 159 0.0 2.0 0.00 0.00 0.00 69 1010.5
20260906080009 76 153 0.0 0.0 0.00 0.00 0.00 71 1010.5
20260906074508 76 153 0.0 2.0 0.00 0.00 0.00 70 1010.5
20260906073005 77 160 0.0 0.0 0.00 0.00 0.00 68 1010.4
20260906071504 78 160 0.0 0.0 0.00 0.00 0.00 68 1010.4
20260906070002 78 160 0.0 2.0 0.00 0.00 0.00 68 1010.5
20260906064503 78 160 0.0 0.0 0.00 0.00 0.00 68 1010.5
20260906063002 78 160 0.0 0.0 0.00 0.00 0.00 68 1010.4
20260906061600 78 160 0.0 0.0 0.00 0.00 0.00 67 1010.4
20260906060055 79 160 0.0 0.0 0.00 0.00 0.00 64 1010.5
20260906054552 80 160 0.0 1.0 0.00 0.00 0.00 63 1010.4
20260906053053 81 160 0.0 0.0 0.00 0.00 0.00 61 1010.2
20260906051545 82 160 0.0 0.0 0.00 0.00 0.00 59 1010.2
20260906050043 82 160 1.0 2.0 0.00 0.00 0.00 58 1010.2
20260906044543 83 158 0.0 2.0 0.00 0.00 0.00 57 1010.2
20260906043042 83 154 0.0 2.0 0.00 0.00 0.00 57 1010.4
20260906041541 82 172 1.0 5.0 0.00 0.00 0.00 59 1010.3
20260906040040 82 141 0.0 0.0 0.00 0.00 0.00 60 1010.2
20260906034545 82 141 0.0 0.0 0.00 0.00 0.00 59 1010.2
20260906033040 83 141 0.0 0.0 0.00 0.00 0.00 58 1010.1
20260906031538 83 141 0.0 0.0 0.00 0.00 0.00 57 1010.0
20260906030038 84 141 0.0 0.0 0.00 0.00 0.00 55 1010.0
20260906024544 85 141 0.0 0.0 0.00 0.00 0.00 53 1010.0
20260906023038 85 141 0.0 1.0 0.00 0.00 0.00 53 1009.9
20260906021537 86 141 0.0 1.0 0.00 0.00 0.00 52 1009.6
20260906020044 87 141 0.0 1.0 0.00 0.00 0.00 50 1009.5
20260906014549 88 141 0.0 1.0 0.00 0.00 0.00 48 1009.3
20260906013035 89 141 0.0 0.0 0.00 0.00 0.00 47 1009.0
20260906011539 90 141 0.0 0.0 0.00 0.00 0.00 44 1008.9
20260906010034 92 141 0.0 0.0 0.00 0.00 0.00 41 1008.8
20260906004538 94 141 0.0 1.0 0.00 0.00 0.00 39 1008.8
20260906003046 95 141 0.0 3.0 0.00 0.00 0.00 38 1008.6
20260906001532 97 136 1.0 4.0 0.00 0.00 0.00 36 1008.7
20260906000032 98 149 1.0 4.0 0.00 0.00 0.00 35 1008.5
20260905234632 98 96 2.0 6.0 0.00 0.00 0.00 35 1008.4
20260905233031 98 116 2.0 7.0 0.00 0.00 0.00 35 1008.3
20260905231536 98 169 4.0 10.0 0.00 0.00 0.00 35 1008.2
20260905230031 98 76 2.0 7.0 0.00 0.00 0.00 36 1008.2
20260905224533 99 184 2.0 10.0 0.00 0.00 0.00 34 1008.1
20260905223028 101 167 2.0 7.0 0.00 0.00 0.00 33 1008.0
20260905221526 100 124 3.0 8.0 0.00 0.00 0.00 34 1008.2
20260905220024 101 117 3.0 11.0 0.00 0.00 0.00 33 1008.3
20260905214521 100 226 1.0 10.0 0.00 0.00 0.00 34 1008.5
20260905213035 100 71 1.0 10.0 0.00 0.00 0.00 34 1008.7
20260905211517 100 169 2.0 8.0 0.00 0.00 0.00 35 1008.8
20260905210014 99 189 4.0 9.0 0.00 0.00 0.00 35 1009.0
20260905204517 98 219 1.0 12.0 0.00 0.00 0.00 37 1009.2
20260905203009 97 149 4.0 9.0 0.00 0.00 0.00 38 1009.5
20260905201507 98 219 5.0 11.0 0.00 0.00 0.00 37 1009.8
20260905200005 99 105 4.0 11.0 0.00 0.00 0.00 37 1010.0
20260905194502 98 157 2.0 9.0 0.00 0.00 0.00 37 1010.3
20260905193108 98 217 4.0 14.0 0.00 0.00 0.00 36 1010.6
20260905191600 97 148 3.0 10.0 0.00 0.00 0.00 38 1010.9
20260905190059 98 169 3.0 11.0 0.00 0.00 0.00 37 1011.0
20260905184556 97 133 3.0 13.0 0.00 0.00 0.00 39 1011.2
20260905183057 97 82 2.0 14.0 0.00 0.00 0.00 39 1011.3
20260905181554 98 152 2.0 6.0 0.00 0.00 0.00 39 1011.5
20260905180058 97 155 1.0 13.0 0.00 0.00 0.00 42 1011.7
20260905174550 96 253 3.0 9.0 0.00 0.00 0.00 40 1011.8
20260905173051 96 171 5.0 8.0 0.00 0.00 0.00 40 1012.1
20260905171546 96 130 2.0 6.0 0.00 0.00 0.00 42 1012.1
20260905170050 96 86 0.0 5.0 0.00 0.00 0.00 41 1012.2
20260905164541 95 262 2.0 10.0 0.00 0.00 0.00 44 1012.3
20260905163037 94 148 2.0 7.0 0.00 0.00 0.00 46 1012.4
20260905161534 93 268 2.0 7.0 0.00 0.00 0.00 46 1012.4
20260905160041 92 276 1.0 6.0 0.00 0.00 0.00 48 1012.4
20260905154531 92 259 4.0 8.0 0.00 0.00 0.00 49 1012.4
20260905153036 92 242 3.0 8.0 0.00 0.00 0.00 49 1012.4
20260905151524 91 155 2.0 7.0 0.00 0.00 0.00 52 1012.3
20260905150017 90 239 1.0 6.0 0.00 0.00 0.00 54 1012.2
20260905144514 88 230 2.0 8.0 0.00 0.00 0.00 56 1012.2
20260905143011 87 231 2.0 7.0 0.00 0.00 0.00 58 1012.2
20260905141508 86 220 2.0 10.0 0.00 0.00 0.00 59 1012.2
20260905140006 86 185 2.0 10.0 0.00 0.00 0.00 60 1012.1
20260905134503 85 248 1.0 4.0 0.00 0.00 0.00 62 1012.0
20260905133002 83 248 1.0 4.0 0.00 0.00 0.00 64 1012.1
20260905131601 82 158 1.0 5.0 0.00 0.00 0.00 66 1012.0
20260905130058 80 238 0.0 5.0 0.00 0.00 0.00 68 1011.9
20260905124657 79 160 1.0 5.0 0.00 0.00 0.00 70 1011.7
20260905123056 78 167 1.0 5.0 0.00 0.00 0.00 72 1011.6
20260905121553 77 162 0.0 4.0 0.00 0.00 0.00 72 1011.5